Location: Ward Pound Ridge Reservation
(41.2500°N, 73.6000°W)
Time: 03:04:08

Envisat - Pass Details

Date: 16 October 2017
Orbit: 764 x 766 km, 98.2° (Epoch: 22 March)

Event Time Altitude Azimuth Distance (km) Brightness Sun altitude
Exits shadow 20:46:08 45° 346° (NNW) 1,041 3.8 -29.6°
Drops below altitude 10° 20:49:37 10° 347° (NNW) 2,312 5.8 -30.3°
Sets 20:51:56 0° 348° (NNW) 3,242 6.6 -30.7°
